ROMMA est une association bénévole à but non lucratif. Votre soutien est indispensable : ADHERER à ROMMA ou FAIRE un DON

Crêts du Salève - (74, Haute-Savoie)

Salève (1270 m)   Longitude: 6° 10' 28'' E   Latitude: 46° 7' 42'' N Station romma n°73
 

Détail journalier du     <<     >>

Température Precipitation Humidité Vent Dir Rafale Dir. rafale Ensol.
Heure (°C) (mm) (%) (km/h) (km/h) (min)
01:00 0.909921ONO34NO0
02:00 0.60.29920ONO31ONO0
03:00 0.809919NO32NO0
04:00 0.709923NO34NNO0
05:00 0.20.29923NNO31NNO0
06:00 0.409923NNO29NNO0
07:00 -0.409923NNO29NNO0
08:00 -0.209924NNO31NNO0
09:00 -0.30.29924NNO31NNO0
10:00 -0.309925NO32NO0
11:00 -0.209927NO35NO60
12:00 -0.10.29926NO35NO50
13:00 -0.109924NO35NO30
14:00 -0.309929NO40NO50
15:00 -0.809927NO37NO0
16:00 -1.209931ONO39NO0
17:00 -1.409930NO39NO0
18:00 -1.509927NO37NO0
19:00 -1.809927NO35NO0
20:00 -1.709923NO34NO0
21:00 -1.609919NO34NO0
22:00 -1.409917NO27NO0
23:00 -1.909900NO0
minuit -2.809800NO0

Graphique du 22-03-2020

 

Serveur OMMA